Tracking 31030 objects as of 16-Jul-2025
HD Live streaming from Space Station
objects crossing your sky now

CZ-6A DEB

Track CZ-6A DEB now!
10-day predictions


NORAD ID: 54603
Int'l Code: 2022-151ND
Perigee: 424.0 km
Apogee: 454.2 km
Inclination: 98.6 °
Period: 93.2 minutes
Semi major axis: 6810 km
RCS: Unknown
Launch date: November 11, 2022
Source: People's Republic of China (PRC)
Launch site: Taiyaun Space Center, China (TSC)

Note: This is SATELLITE DEBRIS
Your satellite tracking list
Your tracking list is empty




NASA's NSSDC Master Catalog

Two Line Element Set (TLE):
1 54603U 22151ND  25196.74696676  .00492383  00000-0  98111-2 0  9994
2 54603  98.6431 270.3996 0022113 183.4206 176.6891 15.44803800 70671
Source of the keplerian elements: AFSPC